{"data":{"norad_id":65172,"intl_designator":"2025-174J","name":"HULIANWANG DIGUI-66","alt_names":[],"object_type":"PAYLOAD","status":"ACTIVE","operator":null,"country":"PRC","launch_date":"2025-08-13","launch_site_code":"WSC","launch_vehicle":null,"mission":null,"orbit_class":"UNKNOWN","rcs_meters":null,"size_class":null,"mass_kg":null,"dimensions":null,"purposes":[],"wikipedia_slug":null,"has_3d_model":false,"image_url":null,"decayed_at":null,"tle_current":{"epoch":"2026-05-25T04:50:03.808608Z","epoch_age_seconds":57750,"freshness":"FRESH","line1":"1 65172U 25174J   26145.20143297  .00000051  00000+0  85124-4 0  9995","line2":"2 65172  86.4911 259.6810 0001879  94.3043 265.8306 13.24404108 37749","mean_motion":13.24404108,"eccentricity":0.0001879,"inclination_deg":86.4911,"raan_deg":259.681,"arg_perigee_deg":94.3043,"mean_anomaly_deg":265.8306,"bstar":8.5124e-5,"rev_number":3774,"period_min":108.72814357051,"perigee_km":1166.5266574551,"apogee_km":1169.3624749077,"semimajor_km":7546.0815661814,"source":"CELESTRAK","updated_at":"2026-05-25T13:38:05.175014Z"}}}